Location: Christchurch
(43.5330°S, 172.6330°E)
Time: 22:47:51
(UTC+13:00)

Cosmos 292 Rocket - Pass Details

Date: 24 January 2019
Orbit: 673 x 695 km, 74.0° (Epoch: 18 February)

Event Time Altitude Azimuth Distance (km) Brightness Sun altitude
Rises 21:35:04 0° 204° (SSW) 3,065 8.2 -5.7°
Reaches altitude 10° 21:37:23 10° 206° (SSW) 2,144 7.4 -6.0°
Maximum altitude 21:42:10 66° 287° (WNW) 750 4.2 -6.7°
Drops below altitude 10° 21:46:55 10° 8° (N) 2,124 5.9 -7.4°
Enters shadow 21:49:06 - 11° (N) 2,992 6.6 -7.7°
